Regional Weather Roundup
Issued by NWS

Home | Current Version | Previous Version | Text Only | Print | Product List | Glossary Off
Versions: 1 2 3 4 5 6 7 8 9 10 11 12 13 14 15 16 17 18 19 20 21 22 23 24 25 26 27 28 29 30 31 32 33 34 35 36 37 38 39 40 41 42 43 44 45 46 47 48 49 50

000
ASUS43 KIND 220109
RWRIN

WEATHER ROUNDUP FOR INDIANA
NATIONAL WEATHER SERVICE INDIANAPOLIS IN
900 PM EDT SAT OCT 21 2017

NOTE: "FAIR" INDICATES FEW OR NO CLOUDS BELOW 12,000 FEET WITH NO
SIGNIFICANT WEATHER AND/OR OBSTRUCTIONS TO VISIBILITY.

* - STATION DOES NOT REPORT WEATHER SUCH AS PRECIPITATION OR FOG.

+ - STATION NOT QUALITY CONTROLLED BY THE NATIONAL WEATHER SERVICE.
    USE DATA WITH CAUTION...ESPECIALLY DEWPOINT AND RELATIVE
    HUMIDITY OBSERVATIONS.

INZ001>003-010>013-019-020-220200-
NORTHWEST INDIANA

CITY           SKY/WX    TMP DP  RH WIND       PRES   REMARKS
GARY /AIRPORT/ PTCLDY    72  55  56 S8        30.04S
KNOX *+        PTCLDY    66  54  63 S14       30.08S
LA PORTE +     CLOUDY    66  55  66 S9        30.08F
MICHIGAN CITY+ PTCLDY    68  54  60 S10       30.06F
MONTICELLO +   CLEAR     67  54  62 S8        30.11R
RENSSELAER +   CLEAR     68  50  52 SE9       30.08F
VALPARAISO     CLEAR     69  57  65 SE9       30.07S

$$

LMZ046-743>745-220200-
SOUTHERN LAKE MICHIGAN

STATION/POSITION TIME  TEMP    WIND        PRES    WAVE
                       AIR SEA DIR/SP/G            HT
                 (UTC) (F)     (DEG/KT/KT) (MB)    (FT)
BURNS HARBOR     0040   71     160/ 12/ 18 1017.6S
MICHIGAN CITY    0040   71     150/ 10/ 13   N/A
5NW MICH CITY    0100   67 58  180/ 14/ 19   N/A     1

$$

INZ004-005-014>016-021>024-220200-
NORTH CENTRAL INDIANA

CITY           SKY/WX    TMP DP  RH WIND       PRES   REMARKS
GOSHEN         CLOUDY    65  51  60 SE7       30.12S
LOGANSPORT +   CLEAR     63  52  67 S8        30.13S
PERU/GRISSOM   PTCLDY    66  52  61 S13       30.13S
SOUTH BEND     CLOUDY    67  54  63 S13       30.10S
WARSAW +       PTCLDY    66  52  59 SE6       30.13S

$$

INZ006>009-017-018-025>027-220200-
NORTHEAST INDIANA

CITY           SKY/WX    TMP DP  RH WIND       PRES   REMARKS
AUBURN +       MOCLDY    64  41  42 CALM      30.16S
FORT WAYNE     CLOUDY    64  45  49 S7        30.16R
HUNTINGTON +   CLOUDY    65  48  53 S5        30.15S
KENDALLVILLE + CLOUDY    65  44  46 S8        30.16R

$$

INZ028-029-035-036-043>045-051>053-220200-
WEST CENTRAL INDIANA

CITY           SKY/WX    TMP DP  RH WIND       PRES   REMARKS
CRAWFORDSVL +  CLEAR     64  52  63 SE12      30.12
GREENCASTLE +  CLEAR     63  48  59 SE8       30.14S
LAFAYETTE      CLEAR     67  55  65 S12       30.10R
TERRE HAUTE    CLEAR     66  52  60 SE10      30.11S

$$

INZ030>032-037>040-046>048-054>057-064-065-220200-
CENTRAL INDIANA

CITY           SKY/WX    TMP DP  RH WIND       PRES   REMARKS
CP ATTERBURY + CLEAR     63  50  63 SE6       30.17F
COLUMBUS       PTCLDY    61  45  55 SE5       30.18S
FISHERS *+     PTCLDY    64  54  68 S8        30.16
FRANKFORT +    CLOUDY    66  54  63 S6        30.15R
GREENWOOD *+   CLEAR     69  53  57 SE7       30.17S
INDIANAPOLIS   PTCLDY    66  51  58 SE10      30.15S
-EAGLE CREEK   CLEAR     68  50  52 SE9       30.14F
KOKOMO +       PTCLDY    66  52  60 S13       30.15S
MT COMFORT *+  CLOUDY    64  54  68 S7        30.17F
SHELBYVILLE    CLEAR     64  47  53 SE9       30.16F
ZIONSVILLE +   CLEAR     64  51  62 S8        30.16S

$$

INZ033-034-041-042-049-050-058-059-220200-
EAST CENTRAL INDIANA

CITY           SKY/WX    TMP DP  RH WIND       PRES   REMARKS
MUNCIE         CLOUDY    68  46  45 S10       30.17S
RICHMOND +     CLOUDY    59  46  63 SE6       30.22S

$$

INZ060-061-067>069-081>083-085>088-220200-
SOUTHWEST INDIANA

CITY           SKY/WX    TMP DP  RH WIND       PRES   REMARKS
EVANSVILLE     CLOUDY    70  54  56 SE10      30.12F
HUNTINGBURG +  CLEAR     64  53  67 SE10      30.14F
WASHINGTON +   CLOUDY    64  50  59 SE8       30.13S

$$

INZ062-063-066-070>080-084-089>092-220200-
SOUTH CENTRAL AND SOUTHEAST INDIANA

CITY           SKY/WX    TMP DP  RH WIND       PRES   REMARKS
BEDFORD +      CLOUDY    64  48  55 SE8       30.15
BLOOMINGTON    CLOUDY    66  49  54 SE7       30.15F
MADISON *+     PTCLDY    55  46  71 E5        30.22S
NORTH VERNON + PTCLDY    59  46  63 SE5       30.20S
SEYMOUR +      CLEAR     63  48  59 SE6       30.18S

$$





USA.gov is the U.S. government's official web portal to all federal, state and local government web resources and services.